Location: Gull Harbor
(47.1000°N, 122.9000°W)
Time: 19:38:17
(UTC-08:00)

N. Korean satellite - Pass Details

Date: 17 January 2018
Orbit: 459 x 514 km, 97.2° (Epoch: 24 February)

Event Time Altitude Azimuth Distance (km) Brightness Sun altitude
Rises 06:31:23 0° 20° (NNE) 2,504 10.2 -13.4°
Reaches altitude 10° 06:33:33 10° 29° (NNE) 1,619 9.4 -13.0°
Maximum altitude 06:36:47 36° 97° (E) 756 8.3 -12.5°
Drops below altitude 10° 06:39:58 10° 166° (SSE) 1,602 9.6 -12.0°
Sets 06:42:06 0° 175° (S) 2,472 10.5 -11.7°
